Flag for U.S.A. Weather past 2 weeks in Bristol, Tennessee, U.S.A.

Now
51 °F

Overcast.


Feels Like: 51 °F
Forecast: 21 / 43 °F
Wind: No wind

Location: Abingdon-Southwest Abingdon

Current Time: Mar 4, 2015 at 9:49:54 PM

Latest Report: Mar 4, 2015 at 8:55 PM


Visibility: 10 mi

Pressure: 29.89 "Hg

Humidity: 96%

Dew point: 50 °F

Location of BristolLocation

Historic Weather in Bristol — Graph

°F

Bristol temperature yesterday

Maximum temperature yesterday: 47 °F (at 2:40 PM)
Minimum temperature yesterday: 37 °F (at 12:35 AM)
Average temperature yesterday: 42 °F

Past Weeks' High & Low Weather Summary

 TemperatureHumidityPressure
High60 °F (Mar 4, 3:35 PM)100% (Feb 22, 1:55 AM)30.59 "Hg (Feb 22, 1:55 AM)
Low-7 °F (Feb 20, 3:15 AM)25% (Feb 20, 3:15 PM)29.69 "Hg (Feb 25, 7:55 PM)
Average31 °F74%30.14 "Hg
* Reported Feb 17 8:15 PM — Mar 4 8:55 PM, Bristol, Weather by CustomWeather, © 2015

Note: Actual official high and low records may vary slightly from our data, if they occured in-between our weather recording intervals... More about our weather records

Advertising

Bristol weather history for previous 24 hours

 ConditionsComfort  
Time TempWeatherWind HumidityBarometerVisibility
8:55 PM
Wed, Mar 4
51 °FOvercast.No wind96%29.89 "Hg10 mi
8:35 PM52 °FOvercast.3 mph94%29.88 "Hg10 mi
8:15 PM52 °FMostly cloudy.No wind95%29.88 "Hg10 mi
7:55 PM53 °FMostly cloudy.No wind94%29.88 "Hg10 mi
7:35 PM53 °FDrizzle. Mostly cloudy.3 mph93%29.85 "Hg10 mi
7:15 PM53 °FMostly cloudy.No wind95%29.85 "Hg10 mi
6:55 PM54 °FMostly cloudy.3 mph92%29.85 "Hg10 mi
6:35 PM54 °FOvercast.No wind94%29.84 "Hg10 mi
6:15 PM55 °FOvercast.No wind90%29.83 "Hg10 mi
5:35 PM56 °FOvercast.No wind90%29.83 "Hg10 mi
5:15 PM56 °FOvercast.No wind88%29.83 "Hg10 mi
4:15 PM58 °FMostly cloudy.5 mph89%29.84 "Hg10 mi
3:55 PM59 °FOvercast.No wind90%29.83 "Hg10 mi
3:35 PM60 °FOvercast.5 mph89%29.84 "Hg10 mi
3:15 PM60 °FMostly cloudy.6 mph95%29.84 "Hg10 mi
2:55 PM58 °FOvercast.No wind100%29.85 "Hg10 mi
2:35 PM58 °FMore clouds than sun.No wind100%29.85 "Hg10 mi
2:15 PM56 °FOvercast.No wind100%29.86 "Hg10 mi
1:55 PM55 °FOvercast.No wind100%29.87 "Hg10 mi
1:35 PM55 °FOvercast.No wind100%29.88 "Hg10 mi
1:15 PM54 °FCloudy.No wind100%29.89 "Hg10 mi
12:55 PM54 °FLow clouds.3 mph100%29.89 "Hg10 mi
12:35 PM55 °FLow clouds.No wind100%29.89 "Hg10 mi
11:55 AM54 °FLow clouds.No wind100%29.91 "Hg10 mi
11:35 AM54 °FFog.No wind100%29.92 "Hg1 mi
11:15 AM54 °FLight rain. Low clouds.No wind100%29.92 "Hg1 mi
10:55 AM54 °FFog.No wind100%29.92 "Hg0 mi
10:35 AM53 °FFog.No wind100%29.92 "Hg0 mi
10:15 AM53 °FFog.No wind100%29.92 "Hg0 mi
9:55 AM53 °FDrizzle. Low clouds.3 mph100%29.94 "Hg0 mi
9:35 AM51 °FLight rain. Low clouds.5 mph100%29.95 "Hg0 mi
9:15 AM51 °FFog.5 mph100%29.95 "Hg1 mi
8:55 AM51 °FDrizzle. Low clouds.3 mph100%29.95 "Hg2 mi
8:35 AM50 °FDrizzle. Low clouds.3 mph100%29.94 "Hg1 mi
8:15 AM50 °FDrizzle. Low clouds.3 mph100%29.94 "Hg2 mi
7:55 AM50 °FLight rain. Low clouds.3 mph100%29.93 "Hg2 mi
7:35 AM49 °FDrizzle. Low clouds.3 mph100%29.92 "Hg2 mi
7:15 AM49 °FRain. Low clouds.No wind100%29.92 "Hg1 mi
6:55 AM48 °FDrizzle. Low clouds.3 mph100%29.92 "Hg1 mi
6:35 AM48 °FLight rain. Low clouds.No wind100%29.92 "Hg1 mi
6:15 AM48 °FDrizzle. Low clouds.No wind100%29.92 "Hg1 mi
5:55 AM48 °FRain. Low clouds.No wind100%29.93 "Hg1 mi
5:35 AM47 °FLight rain. Low clouds.3 mph100%29.93 "Hg1 mi
5:15 AM47 °FLight rain. Low clouds.No wind100%29.93 "Hg1 mi
4:55 AM47 °FLight rain. Low clouds.3 mph100%29.93 "Hg1 mi
4:35 AM47 °FFog.No wind100%29.92 "Hg1 mi
4:15 AM47 °FFog.No wind100%29.91 "Hg1 mi
3:55 AM45 °FDrizzle. Low clouds.3 mph100%29.92 "Hg2 mi
3:35 AM45 °FDrizzle. Mostly cloudy.No wind100%29.91 "Hg4 mi
3:15 AM44 °FFog.No wind100%29.92 "Hg2 mi
2:55 AM45 °FFog.No wind100%29.91 "Hg3 mi
2:35 AM44 °FFog.No wind100%29.93 "Hg2 mi
2:15 AM44 °FFog.No wind100%29.93 "Hg2 mi
1:55 AM44 °FFog.No wind100%29.95 "Hg2 mi
1:35 AM44 °FFog.No wind100%29.95 "Hg3 mi
1:15 AM44 °FFog.No wind100%29.94 "Hg2 mi
12:55 AM44 °FFog.No wind100%29.95 "Hg1 mi
12:35 AM44 °FDrizzle. Mostly cloudy.No wind100%29.96 "Hg1 mi
12:15 AM44 °FDrizzle. Low clouds.No wind99%29.96 "Hg2 mi
11:55 PM
Tue, Mar 3
43 °FLight rain. Low clouds.No wind99%29.97 "Hg2 mi
11:35 PM43 °FLight rain. Low clouds.No wind99%29.97 "Hg2 mi
11:15 PM44 °FDrizzle. Low clouds.3 mph100%29.99 "Hg2 mi
10:15 PM44 °FRain. Low clouds.No wind99%30.01 "Hg1 mi
9:55 PM44 °FRain. Low clouds.No wind99%30.02 "Hg2 mi
9:15 PM44 °FRain. Low clouds.No wind98%30.02 "Hg2 mi
Weather by CustomWeather, © 2015

See weather overviewHow to use our weather pages